EW0607 Weather Reports


Display with metric or nautical units.
time (UTC)temp
F
wind
direction
speed
MPH
gust
MPH
rain 1hr
in
rain 24hr
in
rain mn
in
humidity
%
barometer
mb
20240227223329 67 300 10.0 0.0 0.00 0.00 0.00 16 1009.9
20240227222846 67 277 9.0 0.0 0.00 0.00 0.00 16 1009.9
20240227222337 66 289 9.0 0.0 0.00 0.00 0.00 16 1009.8
20240227221852 67 261 9.0 0.0 0.00 0.00 0.00 16 1010.1
20240227221345 67 309 10.0 0.0 0.00 0.00 0.00 17 1010.0
20240227220841 67 300 10.0 0.0 0.00 0.00 0.00 17 1010.0
20240227220332 67 292 10.0 0.0 0.00 0.00 0.00 17 1010.0
20240227215839 67 302 10.0 0.0 0.00 0.00 0.00 18 1010.1
20240227215340 67 285 10.0 0.0 0.00 0.00 0.00 18 1009.9
20240227214828 67 264 10.0 0.0 0.00 0.00 0.00 18 1009.9
20240227214336 66 261 12.0 0.0 0.00 0.00 0.00 18 1009.9
20240227213837 66 315 13.0 0.0 0.00 0.00 0.00 18 1009.8
20240227213343 66 329 12.0 0.0 0.00 0.00 0.00 18 1009.9
20240227212846 67 348 12.0 0.0 0.00 0.00 0.00 18 1009.9
20240227212350 66 301 11.0 0.0 0.00 0.00 0.00 18 1009.9
20240227211837 66 318 13.0 0.0 0.00 0.00 0.00 18 1010.0
20240227211343 66 307 16.0 0.0 0.00 0.00 0.00 18 1010.1
20240227210847 66 306 15.0 0.0 0.00 0.00 0.00 18 1009.9
20240227210330 66 311 15.0 0.0 0.00 0.00 0.00 19 1010.1
20240227205832 66 323 14.0 0.0 0.00 0.00 0.00 19 1010.2
20240227205332 66 310 14.0 0.0 0.00 0.00 0.00 18 1010.1
20240227204852 66 301 14.0 0.0 0.00 0.00 0.00 19 1010.2
20240227204333 66 360 15.0 0.0 0.00 0.00 0.00 18 1010.1
20240227203827 66 306 15.0 0.0 0.00 0.00 0.00 19 1010.1
20240227203330 66 307 15.0 0.0 0.00 0.00 0.00 19 1010.2
20240227202901 66 303 16.0 0.0 0.00 0.00 0.00 19 1010.1
20240227202336 66 348 16.0 0.0 0.00 0.00 0.00 19 1010.2
20240227201845 66 288 16.0 0.0 0.00 0.00 0.00 20 1010.2
20240227201345 66 292 16.0 0.0 0.00 0.00 0.00 21 1010.3
20240227200829 66 360 15.0 0.0 0.00 0.00 0.00 20 1010.3
20240227200341 65 360 15.0 0.0 0.00 0.00 0.00 20 1010.3
20240227195842 65 301 17.0 0.0 0.00 0.00 0.00 20 1010.3
20240227195338 65 360 18.0 0.0 0.00 0.00 0.00 20 1010.1
20240227194843 65 319 18.0 0.0 0.00 0.00 0.00 21 1010.2
20240227194338 65 360 18.0 0.0 0.00 0.00 0.00 21 1010.1
20240227193835 65 289 18.0 0.0 0.00 0.00 0.00 21 1010.1
20240227193349 65 336 17.0 0.0 0.00 0.00 0.00 22 1010.1
20240227192837 65 360 16.0 0.0 0.00 0.00 0.00 23 1010.3
20240227192340 64 318 15.0 0.0 0.00 0.00 0.00 23 1010.5
20240227191900 64 277 16.0 0.0 0.00 0.00 0.00 23 1010.5
20240227191349 64 360 16.0 0.0 0.00 0.00 0.00 24 1010.5
20240227190843 64 360 15.0 0.0 0.00 0.00 0.00 24 1010.3
20240227190341 64 360 15.0 0.0 0.00 0.00 0.00 24 1010.4
20240227185902 63 360 15.0 0.0 0.00 0.00 0.00 25 1010.5
20240227185344 63 360 15.0 0.0 0.00 0.00 0.00 25 1010.1
20240227184850 63 360 14.0 0.0 0.00 0.00 0.00 25 1010.1
20240227184340 63 360 12.0 0.0 0.00 0.00 0.00 26 1010.2
20240227183854 62 360 12.0 0.0 0.00 0.00 0.00 26 1010.3
20240227183329 62 291 12.0 0.0 0.00 0.00 0.00 28 1010.3
20240227182833 62 360 13.0 0.0 0.00 0.00 0.00 28 1010.1
20240227182333 62 360 13.0 0.0 0.00 0.00 0.00 30 1010.1
20240227181903 62 360 12.0 0.0 0.00 0.00 0.00 30 1010.1
20240227181345 62 279 12.0 0.0 0.00 0.00 0.00 30 1010.1
20240227180846 62 360 12.0 0.0 0.00 0.00 0.00 30 1010.1
20240227180337 61 360 11.0 0.0 0.00 0.00 0.00 30 1010.1
20240227175825 61 360 10.0 0.0 0.00 0.00 0.00 31 1010.2
20240227175338 61 281 11.0 0.0 0.00 0.00 0.00 32 1010.1
20240227174838 61 268 13.0 0.0 0.00 0.00 0.00 31 1009.9
20240227174336 61 347 13.0 0.0 0.00 0.00 0.00 31 1009.9
20240227173844 61 360 13.0 0.0 0.00 0.00 0.00 32 1009.9
20240227173320 61 360 14.0 0.0 0.00 0.00 0.00 32 1009.8
20240227172832 61 360 14.0 0.0 0.00 0.00 0.00 32 1009.7
20240227172342 60 360 15.0 0.0 0.00 0.00 0.00 33 1009.7
20240227171844 60 360 15.0 0.0 0.00 0.00 0.00 34 1009.6
20240227171340 60 360 15.0 0.0 0.00 0.00 0.00 35 1009.4
20240227170904 60 360 14.0 0.0 0.00 0.00 0.00 38 1009.4
20240227170340 60 360 12.0 0.0 0.00 0.00 0.00 39 1009.4
20240227165841 59 360 12.0 0.0 0.00 0.00 0.00 41 1009.4
20240227165344 59 360 11.0 0.0 0.00 0.00 0.00 42 1009.3
20240227164843 59 360 13.0 0.0 0.00 0.00 0.00 45 1009.4
20240227164341 58 301 15.0 0.0 0.00 0.00 0.00 46 1009.4
20240227163834 58 360 15.0 0.0 0.00 0.00 0.00 48 1009.2
20240227163330 57 314 14.0 0.0 0.00 0.00 0.00 49 1009.1
20240227162828 57 13 14.0 0.0 0.00 0.00 0.00 50 1008.9
20240227162330 57 347 13.0 0.0 0.00 0.00 0.00 51 1008.8
20240227161829 57 284 13.0 0.0 0.00 0.00 0.00 51 1008.7
20240227161348 56 302 13.0 0.0 0.00 0.00 0.00 52 1008.9
20240227160827 56 315 13.0 0.0 0.00 0.00 0.00 53 1008.8
20240227160356 56 300 13.0 0.0 0.00 0.00 0.00 53 1008.6
20240227155855 56 348 12.0 0.0 0.00 0.00 0.00 54 1008.6
20240227155326 55 323 11.0 0.0 0.00 0.00 0.00 54 1008.4
20240227154830 55 315 10.0 0.0 0.00 0.00 0.00 55 1008.4
20240227154338 55 315 10.0 0.0 0.00 0.00 0.00 55 1008.3
20240227153844 55 332 10.0 0.0 0.00 0.00 0.00 55 1008.5
20240227153322 54 335 10.0 0.0 0.00 0.00 0.00 56 1008.5
20240227152836 54 330 9.0 0.0 0.00 0.00 0.00 56 1008.4
20240227152344 53 309 9.0 0.0 0.00 0.00 0.00 58 1008.3
20240227151842 52 348 8.0 0.0 0.00 0.00 0.00 59 1008.3
20240227151352 52 299 8.0 0.0 0.00 0.00 0.00 60 1008.2
20240227150853 52 319 7.0 0.0 0.00 0.00 0.00 61 1008.1
20240227150342 51 316 6.0 0.0 0.00 0.00 0.00 61 1008.1
20240227145841 51 308 4.0 0.0 0.00 0.00 0.00 61 1008.0
20240227145338 51 308 4.0 0.0 0.00 0.00 0.00 61 1008.0
20240227144843 51 319 3.0 0.0 0.00 0.00 0.00 62 1007.9
20240227144341 51 327 2.0 0.0 0.00 0.00 0.00 61 1007.8
20240227143843 51 360 2.0 0.0 0.00 0.00 0.00 61 1007.6
20240227143340 50 302 2.0 0.0 0.00 0.00 0.00 62 1007.8
20240227142834 50 360 3.0 0.0 0.00 0.00 0.00 61 1007.5
20240227142353 51 360 4.0 0.0 0.00 0.00 0.00 61 1007.2
20240227141858 51 360 5.0 0.0 0.00 0.00 0.00 60 1007.1
20240227141340 51 360 7.0 0.0 0.00 0.00 0.00 60 1007.1
20240227140845 51 360 8.0 0.0 0.00 0.00 0.00 59 1006.8
20240227140353 52 360 9.0 0.0 0.00 0.00 0.00 58 1006.7
20240227135830 53 360 8.0 0.0 0.00 0.00 0.00 57 1006.4
20240227135353 53 360 6.0 0.0 0.00 0.00 0.00 57 1006.3
20240227134834 52 334 4.0 0.0 0.00 0.00 0.00 60 1006.4
20240227134335 51 32 2.0 0.0 0.00 0.00 0.00 64 1006.4
20240227133856 52 53 3.0 0.0 0.00 0.00 0.00 63 1006.2
20240227133339 53 20 6.0 0.0 0.00 0.00 0.00 59 1006.0
20240227132832 54 26 7.0 0.0 0.00 0.00 0.00 56 1005.7
20240227132334 53 30 5.0 0.0 0.00 0.00 0.00 56 1005.7
20240227131854 53 315 3.0 0.0 0.00 0.00 0.00 57 1005.6
20240227131329 52 360 2.0 0.0 0.00 0.00 0.00 58 1005.6
20240227130830 51 360 2.0 0.0 0.00 0.00 0.00 58 1005.5
20240227130416 52 360 1.0 0.0 0.00 0.00 0.00 58 1005.5
20240227125842 51 360 1.0 0.0 0.00 0.00 0.00 58 1005.3
20240227125348 52 360 1.0 0.0 0.00 0.00 0.00 58 1005.0
20240227124913 52 360 1.0 0.0 0.00 0.00 0.00 57 1005.0
20240227124352 52 259 0.0 0.0 0.00 0.00 0.00 59 1004.9
20240227123842 51 221 0.0 0.0 0.00 0.00 0.00 62 1005.1
20240227123335 50 206 0.0 0.0 0.00 0.00 0.00 65 1005.0
20240227122834 49 19 1.0 0.0 0.00 0.00 0.00 66 1005.1
20240227122334 49 17 1.0 0.0 0.00 0.00 0.00 66 1004.9
20240227121905 49 360 0.0 0.0 0.00 0.00 0.00 66 1004.7
20240227121345 49 360 0.0 0.0 0.00 0.00 0.00 66 1004.6
20240227120841 50 360 1.0 0.0 0.00 0.00 0.00 63 1004.4
20240227120348 50 360 1.0 0.0 0.00 0.00 0.00 64 1004.4
20240227115852 51 360 0.0 0.0 0.00 0.00 0.00 61 1004.3
20240227115344 52 360 0.0 0.0 0.00 0.00 0.00 60 1004.7
20240227114845 52 261 1.0 0.0 0.00 0.00 0.00 59 1004.7
20240227114334 53 261 1.0 0.0 0.00 0.00 0.00 59 1004.7
20240227113848 52 360 1.0 0.0 0.00 0.00 0.00 60 1004.7
20240227113345 51 360 1.0 0.0 0.00 0.00 0.00 62 1003.8
20240227112837 50 244 1.0 0.0 0.00 0.00 0.00 63 1003.7
20240227112333 50 297 1.0 0.0 0.00 0.00 0.00 64 1003.7
20240227111831 50 360 1.0 0.0 0.00 0.00 0.00 62 1003.6
20240227111329 51 360 1.0 0.0 0.00 0.00 0.00 61 1004.3
20240227110841 52 360 1.0 0.0 0.00 0.00 0.00 61 1004.3
20240227110326 52 360 1.0 0.0 0.00 0.00 0.00 62 1004.2
20240227105857 52 360 1.0 0.0 0.00 0.00 0.00 63 1004.3
20240227105357 52 360 2.0 0.0 0.00 0.00 0.00 62 1004.0
20240227104849 52 82 3.0 0.0 0.00 0.00 0.00 62 1003.9
20240227104329 52 82 3.0 0.0 0.00 0.00 0.00 62 1003.8
20240227103828 52 77 3.0 0.0 0.00 0.00 0.00 61 1003.5
20240227103349 53 84 3.0 0.0 0.00 0.00 0.00 61 1003.4
20240227102903 53 78 3.0 0.0 0.00 0.00 0.00 60 1003.4
20240227102345 53 360 3.0 0.0 0.00 0.00 0.00 60 1003.4
20240227101843 53 83 3.0 0.0 0.00 0.00 0.00 60 1003.4
20240227101338 53 83 3.0 0.0 0.00 0.00 0.00 60 1003.3
20240227100837 54 360 3.0 0.0 0.00 0.00 0.00 59 1003.3
20240227100343 54 360 3.0 0.0 0.00 0.00 0.00 59 1003.3
20240227095837 54 360 3.0 0.0 0.00 0.00 0.00 58 1003.3
20240227095358 54 83 4.0 0.0 0.00 0.00 0.00 59 1003.2
20240227094839 54 78 4.0 0.0 0.00 0.00 0.00 58 1003.2
20240227094337 54 96 3.0 0.0 0.00 0.00 0.00 59 1003.3
20240227093839 54 119 4.0 0.0 0.00 0.00 0.00 58 1003.2
20240227093337 54 88 4.0 0.0 0.00 0.00 0.00 58 1003.2
20240227092847 54 78 4.0 0.0 0.00 0.00 0.00 58 1003.2
20240227092332 54 77 4.0 0.0 0.00 0.00 0.00 58 1003.0
20240227091903 54 96 4.0 0.0 0.00 0.00 0.00 58 1002.9
20240227091342 54 79 4.0 0.0 0.00 0.00 0.00 57 1003.0
20240227090830 54 84 4.0 0.0 0.00 0.00 0.00 57 1002.9
20240227090322 54 80 4.0 0.0 0.00 0.00 0.00 57 1003.0
20240227085917 55 51 4.0 0.0 0.00 0.00 0.00 57 1002.9
20240227085322 55 86 4.0 0.0 0.00 0.00 0.00 56 1002.5
20240227084844 55 81 3.0 0.0 0.00 0.00 0.00 56 1002.5
20240227083844 56 84 4.0 0.0 0.00 0.00 0.00 54 1003.3
20240227083347 56 105 4.0 0.0 0.00 0.00 0.00 54 1003.3
20240227082843 56 94 4.0 0.0 0.00 0.00 0.00 53 1003.3
20240227082358 57 88 4.0 0.0 0.00 0.00 0.00 53 1003.3
20240227081845 57 106 4.0 0.0 0.00 0.00 0.00 52 1003.4
20240227081334 56 87 4.0 0.0 0.00 0.00 0.00 53 1003.4
20240227080836 57 99 4.0 0.0 0.00 0.00 0.00 53 1003.6
20240227080342 56 116 3.0 0.0 0.00 0.00 0.00 53 1003.6
20240227075841 57 91 2.0 0.0 0.00 0.00 0.00 52 1003.7
20240227075327 57 91 2.0 0.0 0.00 0.00 0.00 51 1002.8
20240227074831 57 90 2.0 0.0 0.00 0.00 0.00 51 1002.9
20240227074346 58 91 1.0 0.0 0.00 0.00 0.00 49 1003.1
20240227073829 59 95 1.0 0.0 0.00 0.00 0.00 48 1003.6
20240227073339 59 94 1.0 0.0 0.00 0.00 0.00 47 1003.6
20240227072848 60 116 1.0 0.0 0.00 0.00 0.00 45 1003.5
20240227072338 60 229 1.0 0.0 0.00 0.00 0.00 44 1003.1
20240227071834 59 308 1.0 0.0 0.00 0.00 0.00 45 1003.2
20240227071349 60 85 1.0 0.0 0.00 0.00 0.00 44 1003.3
20240227070840 60 263 2.0 0.0 0.00 0.00 0.00 43 1003.2
20240227070319 61 142 2.0 0.0 0.00 0.00 0.00 41 1002.9
20240227065846 61 178 2.0 0.0 0.00 0.00 0.00 40 1002.7
20240227065327 61 244 2.0 0.0 0.00 0.00 0.00 40 1002.0
20240227064904 61 44 2.0 0.0 0.00 0.00 0.00 40 1002.1
20240227064340 61 246 2.0 0.0 0.00 0.00 0.00 39 1002.4
20240227063829 61 200 2.0 0.0 0.00 0.00 0.00 39 1002.4
20240227063334 61 186 2.0 0.0 0.00 0.00 0.00 39 1002.1
20240227062824 61 201 1.0 0.0 0.00 0.00 0.00 39 1002.3
20240227062338 61 116 2.0 0.0 0.00 0.00 0.00 40 1002.4
20240227061857 62 259 2.0 0.0 0.00 0.00 0.00 38 1002.6
20240227061334 62 132 2.0 0.0 0.00 0.00 0.00 38 1002.7
20240227060842 62 269 2.0 0.0 0.00 0.00 0.00 39 1002.9
20240227060354 61 159 1.0 0.0 0.00 0.00 0.00 39 1003.0
20240227055847 61 98 3.0 0.0 0.00 0.00 0.00 40 1003.1
20240227054822 62 93 1.0 0.0 0.00 0.00 0.00 38 1003.2
20240227053831 62 80 2.0 0.0 0.00 0.00 0.00 37 1003.2
20240227053334 63 360 2.0 0.0 0.00 0.00 0.00 37 1002.9
20240227052842 62 81 1.0 0.0 0.00 0.00 0.00 37 1003.1
20240227040827 64 42 4.0 0.0 0.00 0.00 0.00 33 1003.1
20240227040358 64 165 4.0 0.0 0.00 0.00 0.00 33 1003.1
20240227035846 65 360 4.0 0.0 0.00 0.00 0.00 33 1002.8
20240227035345 65 210 3.0 0.0 0.00 0.00 0.00 33 1003.1
20240227034843 65 360 3.0 0.0 0.00 0.00 0.00 33 1003.0
20240227034340 65 360 4.0 0.0 0.00 0.00 0.00 32 1002.9
20240227033850 65 253 4.0 0.0 0.00 0.00 0.00 32 1002.9
20240227033356 65 360 5.0 0.0 0.00 0.00 0.00 32 1002.9
20240227032854 65 360 5.0 0.0 0.00 0.00 0.00 32 1002.9
20240227032354 65 360 4.0 0.0 0.00 0.00 0.00 32 1002.9
20240227031847 65 360 4.0 0.0 0.00 0.00 0.00 32 1003.0
20240227031351 65 232 4.0 0.0 0.00 0.00 0.00 32 1002.8
20240227030846 65 360 4.0 0.0 0.00 0.00 0.00 31 1002.8
20240227030344 65 360 4.0 0.0 0.00 0.00 0.00 31 1002.7
20240227025843 65 31 4.0 0.0 0.00 0.00 0.00 31 1002.8
20240227025346 66 253 3.0 0.0 0.00 0.00 0.00 31 1002.2
20240227024903 66 112 3.0 0.0 0.00 0.00 0.00 31 1002.2
20240227024333 66 306 3.0 0.0 0.00 0.00 0.00 30 1002.1
20240227023853 66 246 3.0 0.0 0.00 0.00 0.00 30 1002.3
20240227023336 66 229 3.0 0.0 0.00 0.00 0.00 30 1002.3
20240227022834 66 228 4.0 0.0 0.00 0.00 0.00 30 1002.3
20240227022336 66 188 4.0 0.0 0.00 0.00 0.00 30 1001.9
20240227021835 67 17 3.0 0.0 0.00 0.00 0.00 29 1001.7
20240227021342 67 117 4.0 0.0 0.00 0.00 0.00 29 1001.9
20240227020842 67 292 4.0 0.0 0.00 0.00 0.00 28 1002.0
20240227020346 67 278 3.0 0.0 0.00 0.00 0.00 28 1001.9
20240227015842 67 162 4.0 0.0 0.00 0.00 0.00 28 1001.9
20240227015346 67 267 3.0 0.0 0.00 0.00 0.00 28 1001.8
20240227014842 67 333 3.0 0.0 0.00 0.00 0.00 28 1001.9
20240227014343 67 300 3.0 0.0 0.00 0.00 0.00 28 1002.0
20240227013835 68 232 3.0 0.0 0.00 0.00 0.00 28 1002.0
20240227013332 68 222 3.0 0.0 0.00 0.00 0.00 27 1001.8
20240227012902 68 288 3.0 0.0 0.00 0.00 0.00 27 1001.8
20240227012331 68 115 3.0 0.0 0.00 0.00 0.00 27 1001.7
20240227011834 68 259 3.0 0.0 0.00 0.00 0.00 26 1001.8
20240227011337 69 343 3.0 0.0 0.00 0.00 0.00 26 1001.9
20240227010841 69 193 3.0 0.0 0.00 0.00 0.00 26 1001.9
20240227010351 69 279 4.0 0.0 0.00 0.00 0.00 25 1001.9
20240227005852 70 205 4.0 0.0 0.00 0.00 0.00 25 1003.0
20240227005346 70 132 3.0 0.0 0.00 0.00 0.00 25 1002.8
20240227004842 71 312 3.0 0.0 0.00 0.00 0.00 24 1002.7
20240227004402 71 360 3.0 0.0 0.00 0.00 0.00 24 1002.7
20240227003911 71 360 3.0 0.0 0.00 0.00 0.00 22 1002.7
20240227003330 71 360 3.0 0.0 0.00 0.00 0.00 23 1002.7
20240227002840 71 61 3.0 0.0 0.00 0.00 0.00 23 1002.5
20240227002406 71 304 3.0 0.0 0.00 0.00 0.00 23 1002.6
20240227001906 72 175 3.0 0.0 0.00 0.00 0.00 23 1002.8
20240227001327 73 208 2.0 0.0 0.00 0.00 0.00 22 1002.6
20240227000844 73 111 2.0 0.0 0.00 0.00 0.00 22 1002.4
20240227000341 72 360 2.0 0.0 0.00 0.00 0.00 22 1002.8
20240226235900 72 360 2.0 0.0 0.00 0.00 0.00 22 1002.6
20240226235354 72 347 2.0 0.0 0.00 0.00 0.00 23 1003.0
20240226234846 72 360 2.0 0.0 0.00 0.00 0.00 22 1003.2
20240226234347 72 78 1.0 0.0 0.00 0.00 0.00 21 1003.2
20240226233830 73 285 1.0 0.0 0.00 0.00 0.00 22 1003.3
20240226233327 73 217 2.0 0.0 0.00 0.00 0.00 21 1003.3
20240226232854 73 40 2.0 0.0 0.00 0.00 0.00 21 1003.4
20240226232349 73 310 3.0 0.0 0.00 0.00 0.00 20 1003.4
20240226231843 73 205 3.0 0.0 0.00 0.00 0.00 20 1003.4
20240226231343 74 360 3.0 0.0 0.00 0.00 0.00 20 1003.4
20240226230846 73 290 3.0 0.0 0.00 0.00 0.00 20 1003.5
20240226230356 74 360 3.0 0.0 0.00 0.00 0.00 20 1003.5
20240226225837 75 263 3.0 0.0 0.00 0.00 0.00 19 1003.5
20240226225330 76 251 3.0 0.0 0.00 0.00 0.00 18 1003.5
20240226224845 75 38 2.0 0.0 0.00 0.00 0.00 19 1003.8
20240226224347 75 360 3.0 0.0 0.00 0.00 0.00 18 1004.0
20240226223912 75 360 3.0 0.0 0.00 0.00 0.00 19 1004.0